EW2748 Weather Reports


Display with metric or nautical units.
time (UTC)temp
F
wind
direction
speed
MPH
gust
MPH
rain 1hr
in
rain 24hr
in
rain mn
in
humidity
%
barometer
mb
20260509201007 75 272 1.0 5.0 0.00 0.00 0.00 63 1012.1
20260509200011 74 349 0.0 3.0 0.00 0.00 0.00 65 1012.1
20260509195508 74 311 0.0 5.0 0.00 0.00 0.00 67 1012.1
20260509195008 74 327 1.0 5.0 0.00 0.00 0.00 65 1012.1
20260509194511 74 288 0.0 3.0 0.00 0.00 0.00 64 1012.1
20260509194007 74 282 0.0 2.0 0.00 0.00 0.00 66 1012.1
20260509193513 74 302 0.0 3.0 0.00 0.00 0.00 66 1012.3
20260509193033 74 286 1.0 3.0 0.00 0.00 0.00 65 1012.1
20260509192505 75 269 0.0 2.0 0.00 0.00 0.00 65 1012.1
20260509192005 75 354 0.0 3.0 0.00 0.00 0.00 64 1012.2
20260509191520 75 316 0.0 3.0 0.00 0.00 0.00 63 1012.4
20260509191004 75 290 0.0 3.0 0.00 0.00 0.00 66 1012.4
20260509190503 75 240 0.0 3.0 0.00 0.00 0.00 65 1012.4
20260509185004 74 293 0.0 3.0 0.00 0.00 0.00 67 1012.6
20260509184520 73 304 0.0 3.0 0.00 0.00 0.00 68 1012.7
20260509184006 73 39 0.0 2.0 0.00 0.00 0.00 66 1012.9
20260509183509 73 302 0.0 1.0 0.00 0.00 0.00 68 1012.9
20260509183014 73 259 0.0 2.0 0.00 0.00 0.00 68 1012.9
20260509182506 73 259 0.0 3.0 0.00 0.00 0.00 69 1013.0
20260509182008 73 25 0.0 5.0 0.00 0.00 0.00 67 1013.2
20260509181515 73 30 0.0 5.0 0.00 0.00 0.00 69 1013.2
20260509181010 72 25 1.0 5.0 0.00 0.00 0.00 67 1013.0
20260509180508 72 88 0.0 4.0 0.00 0.00 0.00 67 1013.1
20260509180028 72 21 0.0 4.0 0.00 0.00 0.00 68 1012.9
20260509175506 72 290 1.0 5.0 0.00 0.00 0.00 70 1012.9
20260509175009 71 291 1.0 5.0 0.00 0.00 0.00 69 1012.9
20260509174003 71 265 0.0 2.0 0.00 0.00 0.00 71 1012.9
20260509173506 70 229 0.0 2.0 0.00 0.00 0.00 72 1012.9
20260509173022 70 257 0.0 3.0 0.00 0.00 0.00 72 1012.8
20260509172507 70 295 2.0 4.0 0.00 0.00 0.00 70 1012.8
20260509172004 70 357 2.0 4.0 0.00 0.00 0.00 72 1012.9
20260509171535 70 132 1.0 4.0 0.00 0.00 0.00 71 1013.0
20260509171008 70 153 1.0 3.0 0.00 0.00 0.00 71 1013.1
20260509170509 70 94 0.0 3.0 0.00 0.00 0.00 72 1013.1
20260509170019 69 80 1.0 4.0 0.00 0.00 0.00 73 1013.4
20260509165507 68 72 0.0 4.0 0.00 0.00 0.00 75 1013.4
20260509165011 68 153 0.0 5.0 0.00 0.00 0.00 74 1013.5
20260509164516 68 84 1.0 5.0 0.00 0.00 0.00 75 1013.5
20260509164011 67 72 1.0 5.0 0.00 0.00 0.00 76 1013.6
20260509163508 67 104 0.0 2.0 0.00 0.00 0.00 76 1013.6
20260509162507 67 134 0.0 4.0 0.00 0.00 0.00 77 1013.6
20260509162008 66 124 1.0 4.0 0.00 0.00 0.00 78 1013.6
20260509161529 66 129 0.0 4.0 0.00 0.00 0.00 79 1013.6
20260509161004 66 117 1.0 4.0 0.00 0.00 0.00 78 1013.6
20260509160022 66 136 0.0 4.0 0.00 0.00 0.00 80 1013.7
20260509155509 66 111 2.0 4.0 0.00 0.00 0.00 79 1013.6
20260509155010 66 112 2.0 4.0 0.00 0.00 0.00 80 1013.5
20260509154008 64 97 0.0 2.0 0.00 0.00 0.00 81 1013.4
20260509153503 64 98 0.0 3.0 0.00 0.00 0.00 81 1013.5
20260509153021 64 136 0.0 4.0 0.00 0.00 0.00 81 1013.4
20260509152508 64 140 1.0 4.0 0.00 0.00 0.00 82 1013.5
20260509151518 64 162 0.0 2.0 0.00 0.00 0.00 83 1013.5
20260509151006 63 184 0.0 2.0 0.00 0.00 0.00 84 1013.4
20260509150507 63 227 0.0 2.0 0.00 0.00 0.00 85 1013.5
20260509150024 62 107 0.0 2.0 0.00 0.00 0.00 84 1013.5
20260509144535 61 127 1.0 5.0 0.00 0.00 0.00 86 1013.5
20260509144006 61 133 2.0 5.0 0.00 0.00 0.00 86 1013.7
20260509143512 61 219 0.0 3.0 0.00 0.00 0.00 86 1013.6
20260509143009 61 148 0.0 3.0 0.00 0.00 0.00 87 1013.6
20260509142504 61 128 0.0 2.0 0.00 0.00 0.00 87 1013.5
20260509142008 61 147 0.0 2.0 0.00 0.00 0.00 87 1013.5
20260509141513 61 200 0.0 3.0 0.00 0.00 0.00 88 1013.5
20260509141003 60 126 0.0 3.0 0.00 0.00 0.00 88 1013.5
20260509140506 60 148 0.0 2.0 0.00 0.00 0.00 89 1013.5
20260509140005 60 135 0.0 2.0 0.00 0.00 0.00 90 1013.4
20260509135503 59 118 0.0 2.0 0.00 0.00 0.00 89 1013.3
20260509135006 59 143 0.0 3.0 0.00 0.00 0.00 90 1013.1
20260509133504 59 269 0.0 1.0 0.00 0.00 0.00 90 1012.8
20260509133017 59 269 0.0 1.0 0.00 0.00 0.00 90 1012.7
20260509132503 59 243 0.0 2.0 0.00 0.00 0.00 91 1012.7
20260509131517 59 342 0.0 0.0 0.00 0.00 0.00 91 1012.7
20260509131008 59 350 0.0 1.0 0.00 0.00 0.00 91 1012.8
20260509130504 58 122 0.0 2.0 0.00 0.00 0.00 91 1012.9
20260509125008 58 133 0.0 2.0 0.00 0.00 0.00 92 1012.8
20260509124511 58 84 0.0 2.0 0.00 0.00 0.00 92 1013.0
20260509124003 58 117 0.0 2.0 0.00 0.00 0.00 93 1013.0
20260509123504 58 89 0.0 1.0 0.00 0.00 0.00 93 1013.1
20260509123006 58 143 0.0 2.0 0.00 0.00 0.00 93 1013.1
20260509122504 58 146 0.0 6.0 0.00 0.00 0.00 93 1013.1
20260509122006 58 58 0.0 6.0 0.00 0.00 0.00 93 1013.1
20260509121525 58 150 0.0 2.0 0.00 0.00 0.00 93 1013.1
20260509121004 58 89 0.0 2.0 0.00 0.00 0.00 92 1013.1
20260509120017 58 129 0.0 2.0 0.00 0.00 0.00 92 1013.1
20260509115502 58 134 0.0 2.0 0.00 0.00 0.00 92 1013.0
20260509115004 58 160 0.0 0.0 0.00 0.00 0.00 92 1012.8
20260509114010 58 127 0.0 0.0 0.00 0.00 0.00 92 1012.7
20260509113503 58 127 0.0 0.0 0.00 0.00 0.00 92 1012.5
20260509113010 58 122 0.0 0.0 0.00 0.00 0.00 92 1012.4
20260509112507 58 121 0.0 0.0 0.00 0.00 0.00 92 1012.3
20260509111511 58 121 0.0 0.0 0.00 0.00 0.00 92 1012.2
20260509111006 58 121 0.0 0.0 0.00 0.00 0.00 92 1012.2
20260509110505 58 203 0.0 0.0 0.00 0.00 0.00 92 1012.1
20260509110004 58 204 0.0 0.0 0.00 0.00 0.00 92 1012.3
20260509105505 58 203 0.0 0.0 0.00 0.00 0.00 91 1012.1
20260509105010 58 203 0.0 0.0 0.00 0.00 0.00 91 1012.1
20260509104531 58 204 0.0 0.0 0.00 0.00 0.00 91 1011.9
20260509104003 58 203 0.0 0.0 0.00 0.00 0.00 91 1011.9
20260509103018 58 242 0.0 0.0 0.00 0.00 0.00 91 1011.9
20260509102504 58 141 0.0 0.0 0.00 0.00 0.00 91 1011.6
20260509102008 57 141 0.0 0.0 0.00 0.00 0.00 91 1011.5
20260509101518 57 141 0.0 0.0 0.00 0.00 0.00 90 1011.5
20260509101007 57 143 0.0 0.0 0.00 0.00 0.00 90 1011.5
20260509100503 57 143 0.0 0.0 0.00 0.00 0.00 90 1011.6
20260509100024 57 150 0.0 1.0 0.00 0.00 0.00 90 1011.5
20260509095506 57 151 0.0 1.0 0.00 0.00 0.00 90 1011.6
20260509095004 57 354 0.0 0.0 0.00 0.00 0.00 90 1011.8
20260509094517 57 354 0.0 0.0 0.00 0.00 0.00 90 1011.8
20260509094006 57 354 0.0 0.0 0.00 0.00 0.00 90 1012.1
20260509093510 57 354 0.0 0.0 0.00 0.00 0.00 90 1012.1
20260509093007 57 354 0.0 0.0 0.00 0.00 0.00 90 1012.0
20260509092503 57 354 0.0 0.0 0.00 0.00 0.00 90 1012.2
20260509092005 57 293 0.0 2.0 0.00 0.00 0.00 90 1012.0
20260509091525 57 179 0.0 2.0 0.00 0.00 0.00 90 1011.9
20260509091005 57 129 0.0 2.0 0.00 0.00 0.00 89 1011.9
20260509090507 57 140 0.0 2.0 0.00 0.00 0.00 89 1011.9
20260509090024 57 123 0.0 3.0 0.00 0.00 0.00 88 1011.9
20260509085503 57 106 0.0 3.0 0.00 0.00 0.00 88 1012.0
20260509085008 57 143 0.0 1.0 0.00 0.00 0.00 88 1012.0
20260509084525 57 134 0.0 1.0 0.00 0.00 0.00 87 1012.2
20260509084008 57 131 0.0 1.0 0.00 0.00 0.00 87 1012.3
20260509083503 57 129 0.0 1.0 0.00 0.00 0.00 87 1012.3
20260509083019 57 133 0.0 1.0 0.00 0.00 0.00 87 1012.4
20260509082004 57 134 0.0 0.0 0.00 0.00 0.00 87 1012.7
20260509081519 57 138 0.0 0.0 0.00 0.00 0.00 87 1012.6
20260509081006 57 138 0.0 0.0 0.00 0.00 0.00 87 1012.6
20260509075509 57 129 0.0 0.0 0.00 0.00 0.00 87 1012.6
20260509075006 57 134 0.0 2.0 0.00 0.00 0.00 87 1012.7
20260509074524 57 134 0.0 2.0 0.00 0.00 0.00 87 1012.4
20260509074004 57 149 0.0 2.0 0.00 0.00 0.00 88 1012.2
20260509073506 56 130 0.0 0.0 0.00 0.00 0.00 89 1012.5
20260509073021 56 139 0.0 0.0 0.00 0.00 0.00 89 1012.4
20260509072503 56 138 0.0 0.0 0.00 0.00 0.00 90 1012.3
20260509072006 56 138 0.0 0.0 0.00 0.00 0.00 90 1012.4
20260509071010 55 129 0.0 0.0 0.00 0.00 0.00 91 1012.3
20260509070505 55 226 0.0 0.0 0.00 0.00 0.00 91 1012.1
20260509070019 55 226 0.0 0.0 0.00 0.00 0.00 92 1012.3
20260509065004 55 143 0.0 0.0 0.00 0.00 0.00 92 1012.3
20260509064514 55 143 0.0 0.0 0.00 0.00 0.00 92 1012.4
20260509064008 54 143 0.0 0.0 0.00 0.00 0.00 92 1012.4
20260509063509 54 143 0.0 0.0 0.00 0.00 0.00 92 1012.3
20260509063011 54 143 0.0 0.0 0.00 0.00 0.00 92 1012.3
20260509062510 54 143 0.0 0.0 0.00 0.00 0.00 92 1012.4
20260509062010 54 143 0.0 0.0 0.00 0.00 0.00 92 1012.3
20260509061525 54 143 0.0 0.0 0.00 0.00 0.00 92 1012.3
20260509061007 54 143 0.0 0.0 0.00 0.00 0.00 91 1012.3
20260509060507 54 143 0.0 0.0 0.00 0.00 0.00 91 1012.5
20260509060025 54 143 0.0 0.0 0.00 0.00 0.00 91 1012.7
20260509055506 54 143 0.0 0.0 0.00 0.00 0.00 91 1012.6
20260509055005 54 143 0.0 0.0 0.00 0.00 0.00 90 1012.5
20260509054524 54 143 0.0 0.0 0.00 0.00 0.00 90 1012.5
20260509054009 54 143 0.0 0.0 0.00 0.00 0.00 90 1012.5
20260509053507 54 143 0.0 0.0 0.00 0.00 0.00 89 1012.8
20260509053019 55 143 0.0 0.0 0.00 0.00 0.00 89 1012.8
20260509052507 55 143 0.0 0.0 0.00 0.00 0.00 89 1012.8
20260509052008 55 143 0.0 0.0 0.00 0.00 0.00 89 1012.9
20260509051012 55 143 0.0 0.0 0.00 0.00 0.00 89 1012.9
20260509050509 55 143 0.0 0.0 0.00 0.00 0.00 89 1013.0
20260509050019 55 143 0.0 0.0 0.00 0.00 0.00 89 1012.9
20260509045508 55 143 0.0 0.0 0.00 0.00 0.00 89 1013.1
20260509045007 55 143 0.0 0.0 0.00 0.00 0.00 88 1013.2
20260509044540 55 143 0.0 0.0 0.00 0.00 0.00 88 1013.2
20260509044007 55 143 0.0 0.0 0.00 0.00 0.00 88 1013.3
20260509043513 55 143 0.0 0.0 0.00 0.00 0.00 87 1013.4
20260509043024 56 143 0.0 0.0 0.00 0.00 0.00 87 1013.4
20260509042008 56 143 0.0 0.0 0.00 0.00 0.00 87 1013.3
20260509041524 55 143 0.0 0.0 0.00 0.00 0.00 87 1013.3
20260509041008 55 143 0.0 0.0 0.00 0.00 0.00 87 1013.3
20260509040504 55 143 0.0 0.0 0.00 0.00 0.00 87 1013.3
20260509040021 55 143 0.0 0.0 0.00 0.00 0.00 87 1013.4
20260509035510 55 143 0.0 0.0 0.00 0.00 0.00 87 1013.3
20260509035005 56 143 0.0 0.0 0.00 0.00 0.00 87 1013.2
20260509034520 56 143 0.0 0.0 0.00 0.00 0.00 86 1013.3
20260509034010 56 143 0.0 0.0 0.00 0.00 0.00 85 1013.5
20260509033508 56 143 0.0 0.0 0.00 0.00 0.00 85 1013.4
20260509033012 56 143 0.0 0.0 0.00 0.00 0.00 84 1013.6
20260509032508 56 143 0.0 0.0 0.00 0.00 0.00 84 1013.5
20260509032011 56 143 0.0 0.0 0.00 0.00 0.00 84 1013.7
20260509031514 57 143 0.0 0.0 0.00 0.00 0.00 83 1013.7
20260509031006 57 143 0.0 0.0 0.00 0.00 0.00 82 1013.9
20260509030508 57 143 0.0 0.0 0.00 0.00 0.00 81 1014.0
20260509030030 58 143 0.0 0.0 0.00 0.00 0.00 80 1014.0
20260509025506 58 143 0.0 0.0 0.00 0.00 0.00 79 1013.9
20260509024526 59 143 0.0 0.0 0.00 0.00 0.00 78 1013.7
20260509024013 59 143 0.0 0.0 0.00 0.00 0.00 77 1013.6
20260509023508 60 143 0.0 0.0 0.00 0.00 0.00 76 1013.5
20260509023022 60 143 0.0 0.0 0.00 0.00 0.00 76 1013.7
20260509022512 60 143 0.0 0.0 0.00 0.00 0.00 75 1013.7
20260509022005 60 143 0.0 0.0 0.00 0.00 0.00 73 1013.7
20260509021521 61 143 0.0 1.0 0.00 0.00 0.00 73 1013.8
20260509021012 61 143 0.0 1.0 0.00 0.00 0.00 73 1013.7
20260509020514 61 143 0.0 0.0 0.00 0.00 0.00 72 1013.7
20260509020016 61 143 0.0 1.0 0.00 0.00 0.00 72 1013.7
20260509015508 62 143 0.0 1.0 0.00 0.00 0.00 71 1013.6
20260509015009 62 143 0.0 1.0 0.00 0.00 0.00 70 1013.7
20260509013503 63 122 0.0 2.0 0.00 0.00 0.00 69 1013.6
20260509013031 63 156 0.0 2.0 0.00 0.00 0.00 68 1013.5
20260509012504 63 153 0.0 1.0 0.00 0.00 0.00 68 1013.5
20260509011507 63 127 0.0 0.0 0.00 0.00 0.00 67 1013.5
20260509011005 64 137 0.0 0.0 0.00 0.00 0.00 67 1013.5
20260509010505 64 149 0.0 1.0 0.00 0.00 0.00 66 1013.4
20260509010007 64 124 0.0 3.0 0.00 0.00 0.00 65 1013.5
20260509005502 64 130 0.0 3.0 0.00 0.00 0.00 66 1013.5
20260509004505 64 153 0.0 1.0 0.00 0.00 0.00 65 1013.4
20260509004003 65 125 0.0 3.0 0.00 0.00 0.00 65 1013.4
20260509003511 65 134 2.0 3.0 0.00 0.00 0.00 64 1013.2
20260509003022 65 130 1.0 4.0 0.00 0.00 0.00 64 1013.4
20260509002503 65 179 0.0 4.0 0.00 0.00 0.00 63 1013.3
20260509002005 65 96 2.0 6.0 0.00 0.00 0.00 62 1013.3
20260509001519 66 139 2.0 6.0 0.00 0.00 0.00 63 1013.5
20260509000504 66 107 1.0 6.0 0.00 0.00 0.00 62 1013.5
20260509000013 66 135 1.0 6.0 0.00 0.00 0.00 61 1013.5
20260508235506 66 128 0.0 5.0 0.00 0.00 0.00 60 1013.4
20260508235006 67 134 2.0 5.0 0.00 0.00 0.00 59 1013.5
20260508233503 68 158 0.0 4.0 0.00 0.00 0.00 58 1013.6
20260508233008 68 138 1.0 5.0 0.00 0.00 0.00 57 1013.8
20260508232504 68 103 1.0 5.0 0.00 0.00 0.00 57 1013.8
20260508232008 68 140 1.0 5.0 0.00 0.00 0.00 56 1013.6
20260508231504 68 123 1.0 5.0 0.00 0.00 0.00 55 1013.5
20260508231005 68 153 1.0 4.0 0.00 0.00 0.00 55 1013.4
20260508230504 69 157 2.0 6.0 0.00 0.00 0.00 54 1013.5
20260508225504 69 139 1.0 6.0 0.00 0.00 0.00 52 1013.7
20260508225006 69 243 1.0 4.0 0.00 0.00 0.00 52 1013.7
20260508224540 69 124 1.0 4.0 0.00 0.00 0.00 53 1013.8
20260508224003 69 110 0.0 6.0 0.00 0.00 0.00 51 1013.8
20260508223506 69 159 2.0 6.0 0.00 0.00 0.00 51 1013.9
20260508223027 69 139 2.0 7.0 0.00 0.00 0.00 50 1013.8
20260508222509 70 149 1.0 7.0 0.00 0.00 0.00 49 1013.8
20260508222005 70 210 1.0 4.0 0.00 0.00 0.00 51 1013.9
20260508221515 70 134 1.0 6.0 0.00 0.00 0.00 50 1013.9
20260508221007 70 113 1.0 6.0 0.00 0.00 0.00 51 1013.9
20260508220504 70 141 2.0 6.0 0.00 0.00 0.00 51 1014.0
20260508220012 70 139 2.0 5.0 0.00 0.00 0.00 51 1013.9
20260508215504 70 81 1.0 5.0 0.00 0.00 0.00 52 1014.0
20260508215010 70 121 1.0 5.0 0.00 0.00 0.00 50 1014.0
20260508213507 70 211 0.0 5.0 0.00 0.00 0.00 49 1014.0
20260508213003 70 238 0.0 5.0 0.00 0.00 0.00 48 1014.0
20260508212504 70 143 2.0 5.0 0.00 0.00 0.00 48 1013.9
20260508212006 70 162 2.0 7.0 0.00 0.00 0.00 49 1013.8
20260508211520 71 100 2.0 7.0 0.00 0.00 0.00 48 1014.0
20260508210508 71 209 0.0 6.0 0.00 0.00 0.00 50 1014.0
20260508210019 71 141 0.0 6.0 0.00 0.00 0.00 50 1013.9
20260508205513 71 113 3.0 5.0 0.00 0.00 0.00 49 1013.9
20260508204518 72 100 1.0 4.0 0.00 0.00 0.00 48 1013.8
20260508204008 72 149 1.0 4.0 0.00 0.00 0.00 46 1013.9
20260508203012 72 205 0.0 5.0 0.00 0.00 0.00 46 1014.0
20260508202504 71 150 1.0 5.0 0.00 0.00 0.00 48 1014.2
20260508202008 71 103 2.0 5.0 0.00 0.00 0.00 47 1014.3
20260508201507 71 222 2.0 6.0 0.00 0.00 0.00 47 1014.6